Vertical_Velocity
0 1 -0 1 -1 0 0 -2 -2 -2 -3 -2 -1 -5 -3 -2 -4 0 1 -2 -5 1 2 -1 2 -1 -1 0 3 1 -4 0 6 7 4 -4 5 -2 -4 -16 -6 4 -1 -11 5
1 -1 -0 0 -1 -1 -1 -3 -2 -2 -2 -4 -1 -3 -3 -3 3 1 0 -2 2 -3 0 1 -0 1 -5 -2 2 2 -6 2 -6 3 -2 -7 -15 -11 1 -4 2 -4 -6 12 1
-1 -0 2 0 0 0 -1 -4 -2 -1 -2 -1 -2 -2 -4 -3 3 1 -2 1 1 -0 1 -1 1 2 -4 -3 1 3 6 -4 8 -2 -14 -6 -12 -11 -1 1 1 3 6 2 2
0 0 1 0 1 1 -2 -2 -3 -3 -3 2 -2 -3 -4 -4 -4 -0 -1 -2 -2 1 1 2 -1 1 -2 -1 6 4 -0 10 -10 -3 -4 -3 -6 7 6 -4 5 2 24 2 3
0 1 0 1 0 -1 -1 -2 -1 -3 -2 1 -2 -3 -1 -2 -4 1 -4 -3 -5 1 -0 3 -1 -2 2 4 4 -1 3 14 -4 -1 -5 1 0 5 -1 1 8 -7 8 2 -4
1 1 1 2 1 -0 -2 -2 -3 -1 -1 -1 -0 -1 -3 -2 -2 -2 -1 0 -3 -0 0 3 1 -7 -1 2 -1 1 -5 2 -14 9 -2 6 12 -12 3 -7 4 -3 3 -4 2
1 1 2 2 -1 -0 -1 -1 -2 -2 -2 -1 1 -2 -2 -2 -6 -3 -5 2 -4 -1 -0 1 -2 1 -4 -8 -0 -1 3 -1 2 -6 -9 9 6 -3 12 -6 -0 6 1 3 2
-1 2 3 2 0 -1 0 -2 -2 -1 -1 -1 -1 -1 -0 1 -3 -1 -2 -2 -4 -4 -0 2 0 -2 2 4 1 -5 3 1 -0 -11 -5 3 2 7 1 -1 1 -2 3 -0 1
1 1 1 -0 0 -1 -1 -2 -4 -1 -1 -1 -2 -1 -4 -1 1 -1 -1 -1 -3 -2 -3 1 -1 -2 8 0 3 -1 1 8 -0 -2 21 -12 3 -4 -5 1 1 1 3 -0 -2
1 2 0 -1 0 -0 0 -4 -1 1 -0 -0 -3 -2 -5 -4 -3 -6 -1 -2 -5 -2 -1 0 -2 -1 1 6 4 4 10 6 12 -13 -20 -8 -2 -3 -1 2 2 -1 -1 -1 -1
1 2 2 -4 0 0 1 -5 1 4 -5 3 -3 -1 -9 -3 -2 -1 -0 -4 0 -1 1 -2 -4 -7 -2 2 2 14 -12 -1 11 3 7 1 -2 2 -3 5 3 3 5 3 5
2 3 1 -3 0 -1 -2 -5 5 0 -0 5 -2 -5 -7 -4 -5 -1 -1 3 0 -3 -1 -1 -3 -3 4 -11 -3 7 5 3 3 3 9 -3 -5 1 0 -2 -3 -0 -1 -2 -3
1 2 2 -1 -1 0 -3 -2 -2 3 -2 -3 -4 -2 -4 -4 -7 -2 -4 3 2 -3 -3 -3 2 -1 1 2 -2 -0 4 -9 2 -2 4 6 8 2 9 -3 1 4 -1 0 1
-0 3 1 2 2 -7 -3 1 1 1 -7 1 -0 -2 0 -3 -3 -3 1 3 -1 -5 3 -4 -1 -5 4 -2 2 -3 -3 -4 0 -8 4 2 3 -3 -2 4 1 -6 0 -2 -3
2 2 -1 6 2 -8 7 0 -5 1 -10 0 -4 -4 -3 -1 -3 -5 -1 -2 2 -3 -3 -10 -6 -1 -4 -1 7 -6 7 -1 4 -1 -5 -3 -2 3 0 3 3 -7 -9 -2 -2
5 1 1 5 4 -7 -3 -2 -3 -4 4 -7 5 0 -1 -4 1 -3 -1 1 1 -4 0 -2 -3 -4 3 2 0 3 -0 4 2 -2 -8 2 -2 8 -8 6 -10 -3 -3 -7 -14
4 -1 5 2 -6 13 -0 -2 -9 -13 -6 -6 3 -4 -3 -3 -1 -6 6 1 -1 -3 -0 2 -2 7 5 3 -5 5 6 -2 0 -3 3 -7 3 2 1 3 2 6 8 -2 -2
2 2 -3 12 -1 6 -2 -7 -14 3 4 -7 -1 -1 -4 -5 -2 -8 5 1 -0 -2 2 -0 -6 -3 1 2 4 1 1 2 -3 -1 -8 2 1 -3 2 2 3 -2 3 6 -4
-4 -1 2 10 7 0 -8 -24 3 12 7 4 -7 -3 0 -3 -6 -5 7 1 3 3 1 -8 1 -0 -0 -4 -7 0 0 16 2 -3 1 3 -0 -10 -3 -5 1 7 2 -8 2
-3 5 14 -5 2 -2 -18 -6 -3 12 3 -2 -5 -2 -1 -1 -5 -4 7 4 -2 -2 8 5 4 1 2 -10 5 -4 6 0 3 -2 -3 5 -2 -5 0 3 -5 -2 1 2 -0
-7 -6 37 -7 3 -16 -24 -1 6 9 -3 -1 -2 -1 -0 -3 -3 -13 2 9 4 -5 1 3 4 1 -0 -6 2 -8 -0 -3 -0 -5 -4 7 -3 2 3 5 -2 -5 4 5 3
-3 -11 25 -6 -8 -2 -5 10 8 11 -1 -2 1 0 -2 -1 -5 -10 -1 8 5 -5 -3 -5 1 -4 7 6 -7 -3 7 1 0 3 -2 2 6 -1 1 -0 1 2 -1 5 4
-3 11 12 1 -37 -11 0 2 5 2 -1 2 2 1 -1 3 -4 -5 1 3 5 -1 -8 4 -9 0 -2 -11 6 3 2 1 -1 -3 2 0 7 3 2 -2 -1 -7 -1 -1 0
1 0 -2 -31 -2 -7 -8 5 3 9 -2 1 1 -4 -1 -3 -2 2 -4 0 -1 2 1 2 1 2 1 3 -0 -4 0 3 1 2 2 3 1 3 1 1 -2 -1 -2 6 4
-4 -20 -8 -30 -20 -5 -12 10 8 -5 6 3 -4 -0 0 -4 -1 -11 6 -0 -0 -0 2 -3 -0 -2 2 -2 -2 -6 -2 -1 -2 -1 -3 6 -0 2 -5 -6 -5 -5 -4 -1 -4
-20 -14 -12 5 4 -6 -5 5 10 7 -1 5 0 6 -2 -3 -4 2 -4 2 -1 2 0 0 1 -2 -0 -1 -3 2 -1 8 1 4 3 2 -0 5 -1 -3 0 -3 -3 -3 -4
-7 5 -3 9 0 -20 -12 17 16 10 -4 3 11 1 -3 -0 2 4 2 5 3 -2 -2 -1 -0 -3 0 -0 -2 -4 9 -2 3 4 2 -2 -3 3 -4 -4 3 7 7 9 2
Height
5830 5831 5831 5830 5830 5830 5829 5827 5824 5821 5818 5814 5810 5806 5800 5793 5788 5783 5781 5781 5779 5776 5775 5774 5774 5775 5777 5781 5785 5787 5791 5792 5791 5789 5790 5789 5794 5793 5795 5799 5794 5798 5803 5807 5800
5824 5825 5825 5825 5825 5825 5824 5822 5820 5817 5813 5810 5806 5801 5795 5788 5784 5781 5778 5776 5776 5774 5773 5773 5772 5773 5774 5778 5782 5785 5789 5788 5788 5788 5787 5787 5789 5790 5794 5798 5794 5792 5795 5794 5797
5819 5819 5819 5819 5820 5820 5819 5818 5816 5812 5810 5805 5802 5796 5791 5783 5781 5778 5774 5774 5773 5772 5771 5770 5771 5773 5773 5774 5779 5784 5786 5785 5787 5787 5785 5786 5787 5788 5788 5793 5787 5788 5788 5789 5791
5811 5812 5813 5813 5814 5814 5813 5813 5810 5808 5806 5802 5797 5792 5785 5779 5777 5774 5772 5771 5769 5769 5768 5768 5770 5772 5773 5775 5778 5783 5784 5783 5776 5784 5783 5784 5783 5782 5776 5785 5786 5782 5780 5784 5788
5804 5805 5806 5807 5808 5808 5808 5807 5806 5803 5801 5797 5793 5788 5781 5776 5771 5770 5768 5768 5767 5766 5767 5769 5770 5771 5771 5772 5775 5779 5782 5782 5775 5782 5780 5782 5782 5782 5782 5783 5786 5786 5784 5785 5788
5797 5798 5799 5800 5801 5802 5802 5802 5801 5799 5797 5794 5789 5783 5777 5773 5768 5767 5766 5765 5764 5765 5766 5767 5769 5770 5770 5772 5772 5774 5775 5780 5777 5780 5777 5781 5781 5778 5781 5779 5783 5786 5786 5786 5789
5789 5791 5792 5794 5796 5796 5796 5796 5795 5794 5793 5790 5785 5779 5774 5769 5765 5764 5764 5764 5764 5764 5765 5765 5766 5767 5767 5768 5771 5773 5775 5777 5780 5773 5776 5781 5782 5778 5780 5778 5784 5788 5787 5789 5793
5781 5783 5785 5788 5789 5790 5790 5791 5790 5790 5789 5786 5781 5776 5771 5766 5764 5762 5763 5763 5763 5763 5763 5762 5763 5765 5765 5770 5772 5771 5774 5774 5775 5769 5774 5781 5782 5781 5781 5781 5786 5788 5785 5789 5792
5773 5776 5778 5781 5783 5784 5785 5784 5786 5786 5785 5781 5778 5773 5769 5764 5762 5762 5762 5762 5762 5762 5760 5760 5761 5764 5767 5769 5771 5771 5772 5772 5772 5772 5776 5777 5782 5783 5781 5785 5789 5790 5791 5788 5789
5765 5768 5771 5774 5776 5777 5779 5779 5780 5782 5781 5777 5775 5772 5767 5763 5761 5760 5761 5762 5761 5761 5760 5762 5763 5764 5766 5770 5771 5773 5776 5778 5777 5777 5777 5779 5781 5782 5784 5789 5791 5792 5793 5792 5794
5756 5760 5763 5766 5769 5771 5773 5774 5777 5779 5776 5774 5772 5767 5764 5760 5758 5759 5761 5761 5762 5761 5762 5763 5763 5763 5764 5767 5768 5771 5774 5778 5780 5781 5782 5781 5783 5786 5787 5789 5791 5792 5793 5794 5795
5748 5752 5756 5759 5762 5765 5767 5768 5771 5774 5772 5770 5769 5764 5762 5759 5757 5757 5756 5761 5762 5760 5762 5763 5762 5763 5767 5765 5768 5772 5773 5777 5779 5780 5785 5785 5785 5787 5787 5786 5787 5789 5790 5791 5792
5739 5742 5747 5750 5754 5758 5761 5762 5766 5767 5768 5767 5765 5762 5760 5759 5756 5756 5754 5756 5761 5760 5761 5762 5764 5765 5768 5767 5768 5768 5772 5773 5778 5779 5784 5785 5785 5785 5787 5788 5788 5789 5788 5789 5791
5728 5733 5737 5742 5747 5751 5753 5758 5759 5762 5763 5764 5762 5760 5758 5757 5756 5755 5753 5755 5758 5760 5760 5762 5763 5763 5765 5765 5767 5769 5771 5773 5778 5782 5784 5783 5784 5784 5784 5786 5786 5785 5786 5787 5787
5715 5722 5728 5733 5737 5744 5748 5749 5752 5757 5758 5759 5758 5756 5755 5755 5754 5754 5752 5752 5757 5758 5761 5761 5758 5764 5764 5767 5767 5768 5774 5777 5779 5779 5778 5780 5782 5783 5780 5782 5782 5783 5783 5782 5782
5704 5710 5718 5724 5727 5734 5736 5741 5747 5752 5751 5752 5755 5752 5752 5750 5751 5752 5748 5752 5756 5756 5760 5764 5764 5764 5765 5768 5768 5772 5775 5775 5775 5774 5774 5779 5779 5779 5778 5780 5777 5783 5780 5778 5776
5693 5699 5706 5712 5716 5725 5729 5734 5741 5742 5747 5747 5749 5748 5748 5748 5748 5747 5746 5750 5754 5756 5757 5762 5763 5763 5765 5766 5768 5770 5772 5772 5773 5773 5776 5773 5773 5774 5776 5776 5778 5780 5779 5777 5776
5680 5688 5694 5702 5707 5713 5719 5727 5731 5737 5740 5741 5743 5745 5745 5745 5746 5743 5743 5745 5749 5754 5756 5758 5762 5762 5761 5764 5767 5767 5769 5770 5769 5772 5772 5770 5770 5770 5771 5770 5773 5774 5776 5777 5774
5662 5675 5685 5689 5696 5702 5710 5717 5725 5732 5734 5736 5737 5739 5742 5742 5743 5740 5741 5744 5747 5749 5753 5754 5758 5760 5761 5760 5762 5764 5766 5769 5767 5771 5770 5772 5768 5768 5769 5767 5770 5772 5772 5770 5773
5649 5662 5675 5674 5682 5691 5702 5711 5718 5724 5726 5728 5730 5735 5737 5738 5739 5738 5739 5742 5744 5747 5750 5753 5753 5755 5759 5759 5762 5761 5766 5764 5766 5767 5768 5768 5766 5764 5767 5767 5766 5768 5768 5769 5768
5637 5648 5663 5662 5670 5678 5690 5702 5712 5716 5719 5722 5725 5729 5732 5733 5735 5735 5737 5740 5743 5744 5746 5748 5751 5753 5754 5756 5761 5760 5760 5762 5763 5763 5763 5764 5763 5763 5764 5766 5764 5764 5766 5766 5765
5625 5637 5647 5650 5659 5670 5683 5696 5703 5709 5712 5716 5719 5723 5726 5728 5731 5733 5735 5736 5739 5740 5741 5745 5748 5747 5750 5753 5755 5757 5758 5759 5759 5760 5757 5759 5762 5760 5760 5760 5760 5759 5759 5760 5759
5613 5625 5630 5639 5651 5664 5674 5684 5692 5699 5704 5708 5712 5717 5722 5725 5726 5727 5731 5732 5735 5736 5739 5743 5743 5746 5749 5749 5752 5753 5754 5754 5753 5751 5753 5754 5757 5755 5756 5754 5753 5751 5752 5752 5752
5595 5604 5617 5628 5646 5656 5665 5674 5682 5691 5695 5700 5706 5711 5717 5719 5721 5723 5725 5727 5729 5733 5735 5739 5740 5743 5745 5747 5748 5746 5748 5748 5747 5747 5748 5748 5749 5750 5749 5748 5745 5745 5746 5746 5744
5576 5592 5608 5620 5632 5644 5653 5663 5671 5678 5686 5693 5696 5703 5710 5713 5716 5717 5719 5722 5725 5729 5732 5734 5736 5738 5740 5741 5741 5739 5741 5741 5741 5741 5742 5744 5743 5745 5742 5739 5737 5736 5736 5737 5735
5565 5585 5602 5614 5625 5636 5646 5656 5665 5673 5680 5686 5690 5698 5705 5707 5711 5714 5715 5716 5721 5725 5727 5730 5732 5733 5734 5735 5735 5735 5736 5739 5737 5738 5738 5738 5739 5740 5736 5733 5732 5732 5732 5730 5726
5560 5577 5591 5607 5615 5623 5638 5649 5658 5666 5672 5679 5687 5692 5699 5702 5707 5709 5709 5714 5717 5719 5721 5724 5726 5727 5728 5728 5728 5728 5732 5730 5731 5731 5731 5731 5731 5732 5731 5730 5730 5730 5730 5727 5723